Weather in Novostroyka

Russia / Primorsky Krai     46°11′02″N   133°56′02″E
temp.,
°C
wind,
m/s
gust,
m/s
humid.,
%
clouds,
%
prec.,
mm/h
press.,
hPa
HPBL,
m
21 april, wed
wed2101:00+2wsw33370 0.0 101843
04:00+1wsw49380 0.0 1018141
07:00+2wsw34405 0.0 102082
10:00+10wnw46240 0.0 1021604
13:00+17nw57180 0.0 10191655
16:00+19nw56180 0.0 10182172
19:00+17wnw23243 0.0 101848
22:00+12sw11290 0.0 102011
22 april, thu
thu2201:00+10s11370 0.0 102111
04:00+8sse21420 0.0 102210
07:00+8ese11460 0.0 102311
10:00+15se23300 0.0 1023399
13:00+22sse34210 0.0 1021965
16:00+24ssw34183 0.0 10191678
19:00+22ssw222668 0.0 101917
22:00+16sw4842100 0.0 1021170
23 april, fri
fri2301:00+12sw51441100 0.0 1023483
04:00+10sw41343100 0.0 1024474
07:00+9ssw41447100 0.0 1024517
10:00+14sw61039100 0.0 1024719
13:00+18sw7936100 0.0 1022937
16:00+17wsw5642100 0.0 1021907
19:00+17ssw2450100 0.0 1021121
22:00+14wnw3558100 0.0 102196
24 april, sat
sat2401:00+11wnw4761100 0.0 1021632
04:00+8nw5961100 0.1 1022805
07:00+6nw5846100 0.2 10231066
10:00+8nw6730100 0.4 10231308
13:00+12nw67190 0.0 10212123
16:00+13nw78160 0.0 10192205
19:00+12nw69230 0.0 10191996
22:00+7wnw38315 0.0 1020183
25 april, sun
sun2501:00+5w363674 0.0 101993
04:00+4wsw4939100 0.0 1017186
07:00+5w51140100 0.0 1014496
10:00+9nw913280 0.0 10132210
13:00+11nw11142112 0.0 10132849
16:00+12nw9121835 0.0 10133081
19:00+10nnw59180 0.0 10142577
22:00+5wnw33262 0.0 101738